EXPRESS-AT2

Last updated on Tue Oct 28 2025 00:02:49 GMT+0000 (Coordinated Universal Time)

1 39613U 14010B 25300.58864263 -.00000270 00000+0 00000+0 0 9998 2 39613 0.0124 257.5046 0000405 209.6317 280.8516 1.00273372 42165
UTC large
Height (km)
Speed (km/s)
/
Latitude / Longitude
Inclination (degrees)
Orbital Period (minutes)
Azimuth
Elevation
Range (km)
Doppler Factor

Next 0 passes for location: London (51.5072 / 0.1276)

Sorry there are no passes over London.